TimeCDT,TemperatureF,Dew PointF,Humidity,Sea Level PressureIn,VisibilityMPH,Wind Direction,Wind SpeedMPH,Gust SpeedMPH,PrecipitationIn,Events,Conditions,WindDirDegrees,DateUTC
12:53 AM,82.0,66.0,58,29.94,10.0,SW,8.1,-,N/A,,Partly Cloudy,230,2013-09-20 05:53:00
1:53 AM,78.1,69.1,74,29.94,10.0,North,-9999.0,-,0.00,Rain,Light Rain,0,2013-09-20 06:53:00
2:53 AM,75.0,71.1,87,29.94,10.0,West,3.5,-,0.02,Rain,Light Rain,280,2013-09-20 07:53:00
3:10 AM,75.2,71.6,89,29.96,10.0,Calm,Calm,-,0.00,Rain,Light Rain,0,2013-09-20 08:10:00
3:53 AM,73.9,72.0,93,29.93,8.0,Calm,Calm,-,0.02,Rain,Light Rain,0,2013-09-20 08:53:00
4:47 AM,73.4,71.6,94,29.95,1.8,West,4.6,-,0.08,Rain,Rain,280,2013-09-20 09:47:00
4:48 AM,73.9,72.0,93,29.93,1.5,West,4.6,-,0.09,Rain,Heavy Rain,280,2013-09-20 09:48:00
4:59 AM,73.4,71.6,94,29.94,1.0,Calm,Calm,-,0.02,Rain,Heavy Rain,0,2013-09-20 09:59:00
5:28 AM,73.4,71.6,94,29.94,3.0,Calm,Calm,-,0.19,Rain,Rain,0,2013-09-20 10:28:00
5:53 AM,73.0,72.0,96,29.91,2.5,Calm,Calm,-,0.31,Rain,Rain,0,2013-09-20 10:53:00
6:06 AM,73.4,71.6,94,29.93,3.0,Calm,Calm,-,0.05,Rain,Heavy Rain,0,2013-09-20 11:06:00
6:53 AM,73.0,72.0,96,29.91,3.0,Calm,Calm,-,0.22,Rain,Heavy Rain,0,2013-09-20 11:53:00
7:31 AM,73.4,71.6,94,29.93,2.0,Calm,Calm,-,0.14,Rain,Rain,0,2013-09-20 12:31:00
7:42 AM,73.4,71.6,94,29.93,4.0,Calm,Calm,-,0.18,Rain,Light Rain,0,2013-09-20 12:42:00
7:53 AM,73.9,72.0,93,29.92,4.0,SE,3.5,-,0.22,Rain,Rain,140,2013-09-20 12:53:00
8:04 AM,73.4,71.6,94,29.95,2.0,SSE,3.5,-,0.04,Rain,Heavy Rain,150,2013-09-20 13:04:00
8:11 AM,73.4,71.6,94,29.95,1.2,Calm,Calm,-,0.06,Rain,Heavy Rain,0,2013-09-20 13:11:00
8:23 AM,73.4,71.6,94,29.95,0.8,Calm,Calm,-,0.10,Rain,Heavy Rain,0,2013-09-20 13:23:00
8:38 AM,73.4,71.6,94,29.94,1.5,NNE,3.5,-,0.16,Rain,Heavy Rain,30,2013-09-20 13:38:00
8:53 AM,73.0,71.1,93,29.91,1.2,Calm,Calm,-,0.22,Rain,Heavy Rain,0,2013-09-20 13:53:00
9:04 AM,71.6,69.8,94,29.93,3.0,Calm,Calm,-,0.05,Rain,Rain,0,2013-09-20 14:04:00
9:19 AM,73.4,69.8,88,29.93,1.8,Calm,Calm,-,0.13,Rain,Rain,0,2013-09-20 14:19:00
9:23 AM,73.4,69.8,88,29.93,3.0,Calm,Calm,-,0.15,Rain,Rain,0,2013-09-20 14:23:00
9:53 AM,73.0,71.1,93,29.91,5.0,Calm,Calm,-,0.32,Rain,Light Rain,0,2013-09-20 14:53:00
10:53 AM,73.9,71.1,91,29.91,9.0,ENE,4.6,-,0.10,Rain,Light Rain,70,2013-09-20 15:53:00
11:53 AM,72.0,69.1,91,29.89,10.0,ENE,12.7,-,0.01,Rain,Light Rain,60,2013-09-20 16:53:00
12:09 PM,71.6,68.0,88,29.91,10.0,NE,10.4,-,0.00,Rain,Light Rain,50,2013-09-20 17:09:00
12:39 PM,71.6,69.8,94,29.91,5.0,ENE,8.1,-,0.02,Rain,Rain,60,2013-09-20 17:39:00
12:53 PM,71.1,69.1,93,29.89,5.0,East,6.9,-,0.04,Rain,Rain,90,2013-09-20 17:53:00
1:18 PM,71.6,68.0,88,29.90,6.0,NE,9.2,-,0.04,Rain,Rain,40,2013-09-20 18:18:00
1:53 PM,71.1,68.0,90,29.87,9.0,ENE,9.2,-,0.10,Rain,Light Rain,70,2013-09-20 18:53:00
2:53 PM,71.1,69.1,93,29.86,5.0,ENE,6.9,-,0.01,Rain,Light Rain,70,2013-09-20 19:53:00
3:14 PM,71.6,69.8,94,29.87,5.0,NE,6.9,-,0.03,Rain,Rain,50,2013-09-20 20:14:00
3:53 PM,70.0,68.0,93,29.85,6.0,NE,8.1,-,0.07,Rain,Rain,50,2013-09-20 20:53:00
4:25 PM,69.8,68.0,94,29.86,5.0,NE,3.5,-,0.05,Rain,Rain,50,2013-09-20 21:25:00
4:39 PM,69.8,68.0,94,29.86,6.0,NE,8.1,-,0.06,Rain,Light Rain,40,2013-09-20 21:39:00
4:53 PM,70.0,68.0,93,29.84,9.0,ENE,10.4,-,0.07,Rain,Light Rain,60,2013-09-20 21:53:00
5:27 PM,69.8,68.0,94,29.85,10.0,NE,8.1,-,0.02,Rain,Light Rain,50,2013-09-20 22:27:00
5:34 PM,69.8,68.0,94,29.85,10.0,NE,6.9,-,0.02,,Overcast,40,2013-09-20 22:34:00
5:44 PM,69.8,66.2,88,29.85,10.0,NE,10.4,-,0.02,,Overcast,40,2013-09-20 22:44:00
5:53 PM,70.0,66.9,90,29.83,10.0,NE,8.1,-,0.02,,Overcast,50,2013-09-20 22:53:00
6:39 PM,69.8,68.0,94,29.87,10.0,NE,4.6,-,0.00,Rain,Light Rain,40,2013-09-20 23:39:00
6:53 PM,70.0,66.9,90,29.86,10.0,ENE,4.6,-,0.00,,Overcast,70,2013-09-20 23:53:00
7:12 PM,69.8,66.2,88,29.88,10.0,Variable,3.5,-,N/A,,Overcast,0,2013-09-21 00:12:00
7:38 PM,69.8,66.2,88,29.89,10.0,NNW,3.5,-,N/A,,Overcast,340,2013-09-21 00:38:00
7:53 PM,69.1,66.9,93,29.87,10.0,North,4.6,-,N/A,,Overcast,360,2013-09-21 00:53:00
8:08 PM,69.8,66.2,88,29.87,10.0,ENE,8.1,-,N/A,,Overcast,70,2013-09-21 01:08:00
8:53 PM,70.0,66.0,87,29.86,10.0,NE,4.6,-,N/A,,Overcast,50,2013-09-21 01:53:00
9:53 PM,70.0,66.0,87,29.88,10.0,Calm,Calm,-,N/A,,Overcast,0,2013-09-21 02:53:00
10:53 PM,69.1,66.0,90,29.87,10.0,Variable,3.5,-,N/A,,Scattered Clouds,0,2013-09-21 03:53:00
11:39 PM,69.8,66.2,88,29.88,10.0,Variable,5.8,-,N/A,,Mostly Cloudy,0,2013-09-21 04:39:00
11:48 PM,69.8,64.4,83,29.88,10.0,NNE,6.9,-,N/A,,Scattered Clouds,20,2013-09-21 04:48:00
11:53 PM,69.1,66.0,90,29.87,10.0,Calm,Calm,-,N/A,,Mostly Cloudy,0,2013-09-21 04:53:00